| time (UTC) | temp F | wind direction | speed knots | gust knots | rain 1hr in | rain 24hr in | rain mn in | humidity % | barometer mb |
| 20260506014236 | 43 | 83 | 0.0 | 0.0 | 0.00 | 0.00 | 0.21 | 98 | 1012.2 |
| 20260506013733 | 43 | 102 | 0.0 | 0.0 | 0.00 | 0.00 | 0.21 | 98 | 1012.2 |
| 20260506013251 | 43 | 86 | 0.0 | 0.0 | 0.00 | 0.00 | 0.21 | 98 | 1012.2 |
| 20260506012748 | 43 | 94 | 0.0 | 0.0 | 0.00 | 0.00 | 0.21 | 98 | 1012.2 |
| 20260506012247 | 43 | 99 | 0.0 | 0.0 | 0.00 | 0.00 | 0.21 | 98 | 1012.2 |
| 20260506011743 | 43 | 103 | 0.0 | 0.0 | 0.00 | 0.00 | 0.21 | 98 | 1012.2 |
| 20260506011239 | 43 | 83 | 0.0 | 0.0 | 0.00 | 0.00 | 0.21 | 98 | 1012.5 |
| 20260506010736 | 43 | 94 | 0.0 | 0.0 | 0.00 | 0.00 | 0.21 | 98 | 1012.5 |
| 20260506010237 | 43 | 80 | 0.0 | 0.0 | 0.00 | 0.00 | 0.20 | 98 | 1012.5 |
| 20260506005736 | 43 | 96 | 0.0 | 0.0 | 0.00 | 0.00 | 0.20 | 98 | 1012.6 |
| 20260506005236 | 43 | 91 | 0.0 | 0.0 | 0.00 | 0.00 | 0.19 | 98 | 1012.6 |
| 20260506004752 | 43 | 93 | 0.0 | 0.0 | 0.00 | 0.00 | 0.19 | 98 | 1012.6 |
| 20260506004247 | 43 | 85 | 0.0 | 0.0 | 0.00 | 0.00 | 0.17 | 98 | 1012.7 |
| 20260505233234 | 44 | 104 | 0.0 | 0.0 | 0.00 | 0.00 | 0.09 | 98 | 1013.2 |
| 20260505232734 | 44 | 96 | 0.0 | 0.0 | 0.00 | 0.00 | 0.09 | 98 | 1013.1 |
| 20260505232250 | 44 | 123 | 0.0 | 0.0 | 0.00 | 0.00 | 0.09 | 98 | 1013.1 |
| 20260505231746 | 44 | 138 | 0.0 | 0.0 | 0.00 | 0.00 | 0.09 | 98 | 1013.1 |
| 20260505231242 | 44 | 108 | 0.0 | 0.0 | 0.00 | 0.00 | 0.09 | 98 | 1013.2 |
| 20260505230741 | 44 | 108 | 0.0 | 0.0 | 0.00 | 0.00 | 0.09 | 98 | 1013.2 |
| 20260505230237 | 44 | 155 | 0.0 | 0.0 | 0.00 | 0.00 | 0.09 | 98 | 1013.2 |
| 20260505225737 | 44 | 248 | 0.0 | 0.0 | 0.00 | 0.00 | 0.07 | 98 | 1013.2 |
| 20260505225237 | 44 | 249 | 0.0 | 0.0 | 0.00 | 0.00 | 0.05 | 98 | 1013.2 |
| 20260505224733 | 44 | 249 | 0.0 | 0.0 | 0.00 | 0.00 | 0.05 | 98 | 1013.2 |
| 20260505224253 | 44 | 249 | 0.0 | 0.0 | 0.00 | 0.00 | 0.04 | 98 | 1013.3 |
| 20260505223747 | 44 | 249 | 0.0 | 0.0 | 0.00 | 0.00 | 0.03 | 98 | 1013.3 |
| 20260505223243 | 44 | 249 | 0.0 | 0.0 | 0.00 | 0.00 | 0.01 | 98 | 1013.3 |
| 20260505222743 | 44 | 249 | 0.0 | 0.0 | 0.00 | 0.00 | 0.01 | 98 | 1013.4 |
| 20260505222248 | 44 | 249 | 0.0 | 0.0 | 0.00 | 0.00 | 0.01 | 98 | 1013.4 |
| 20260505221750 | 44 | 252 | 0.0 | 0.0 | 0.00 | 0.00 | 0.01 | 98 | 1013.4 |
| 20260505221248 | 44 | 110 | 0.0 | 0.0 | 0.00 | 0.00 | 0.00 | 98 | 1013.5 |
| 20260505220745 | 44 | 110 | 0.0 | 0.0 | 0.00 | 0.00 | 0.00 | 98 | 1013.5 |
| 20260505220245 | 44 | 103 | 0.0 | 0.0 | 0.00 | 0.00 | 0.00 | 98 | 1013.5 |
| 20260505215742 | 44 | 98 | 0.0 | 0.0 | 0.00 | 0.00 | 0.49 | 98 | 1013.6 |
| 20260505215239 | 44 | 99 | 0.0 | 0.0 | 0.00 | 0.00 | 0.49 | 98 | 1013.6 |
| 20260505214735 | 44 | 107 | 0.0 | 0.0 | 0.00 | 0.00 | 0.49 | 98 | 1013.6 |
| 20260505214235 | 44 | 137 | 0.0 | 0.0 | 0.00 | 0.00 | 0.48 | 98 | 1013.7 |
| 20260505213752 | 44 | 102 | 0.0 | 0.0 | 0.00 | 0.00 | 0.48 | 98 | 1013.7 |
| 20260505213246 | 44 | 94 | 0.0 | 0.0 | 0.00 | 0.00 | 0.48 | 98 | 1013.7 |
| 20260505212742 | 44 | 70 | 0.0 | 0.0 | 0.00 | 0.00 | 0.48 | 98 | 1013.9 |
| 20260505212238 | 44 | 69 | 0.0 | 0.0 | 0.00 | 0.00 | 0.47 | 98 | 1013.9 |
| 20260505211734 | 44 | 69 | 0.0 | 0.0 | 0.00 | 0.00 | 0.46 | 98 | 1013.9 |
| 20260505211238 | 44 | 72 | 0.0 | 0.0 | 0.00 | 0.00 | 0.45 | 98 | 1014.1 |
| 20260505210738 | 44 | 117 | 0.0 | 0.0 | 0.00 | 0.00 | 0.43 | 98 | 1014.1 |
| 20260505210234 | 44 | 119 | 0.0 | 0.0 | 0.00 | 0.00 | 0.41 | 98 | 1014.1 |
| 20260505205750 | 44 | 119 | 0.0 | 0.0 | 0.00 | 0.00 | 0.40 | 98 | 1014.1 |
| 20260505205246 | 44 | 119 | 0.0 | 0.0 | 0.00 | 0.00 | 0.39 | 98 | 1014.1 |
| 20260505204746 | 44 | 117 | 0.0 | 0.0 | 0.00 | 0.00 | 0.37 | 98 | 1014.1 |
| 20260505204245 | 44 | 109 | 0.0 | 0.0 | 0.00 | 0.00 | 0.35 | 98 | 1013.8 |
| 20260505203745 | 44 | 113 | 0.0 | 0.0 | 0.00 | 0.00 | 0.34 | 98 | 1013.8 |
| 20260505203241 | 44 | 119 | 0.0 | 0.0 | 0.00 | 0.00 | 0.34 | 98 | 1013.8 |
| 20260505202741 | 44 | 94 | 0.0 | 0.0 | 0.00 | 0.00 | 0.34 | 98 | 1013.8 |
| 20260505202240 | 44 | 119 | 0.0 | 0.0 | 0.00 | 0.00 | 0.34 | 98 | 1013.8 |
| 20260505201740 | 44 | 117 | 0.0 | 0.0 | 0.00 | 0.00 | 0.34 | 98 | 1013.8 |
| 20260505201240 | 44 | 101 | 0.0 | 0.0 | 0.00 | 0.00 | 0.34 | 98 | 1014.1 |
| 20260505200739 | 44 | 103 | 0.0 | 0.0 | 0.00 | 0.00 | 0.34 | 98 | 1014.1 |
| 20260505200241 | 44 | 98 | 0.0 | 0.0 | 0.00 | 0.00 | 0.34 | 98 | 1014.1 |
| 20260505195737 | 44 | 108 | 0.0 | 0.0 | 0.00 | 0.00 | 0.34 | 98 | 1014.1 |
| 20260505195236 | 44 | 108 | 0.0 | 0.0 | 0.00 | 0.00 | 0.34 | 98 | 1014.1 |
| 20260505194752 | 44 | 97 | 0.0 | 0.0 | 0.00 | 0.00 | 0.34 | 98 | 1014.1 |
| 20260505194246 | 44 | 108 | 0.0 | 0.0 | 0.00 | 0.00 | 0.33 | 98 | 1013.9 |
| 20260505193742 | 44 | 114 | 0.0 | 0.0 | 0.00 | 0.00 | 0.33 | 98 | 1013.9 |
| 20260505193239 | 44 | 105 | 0.0 | 0.0 | 0.00 | 0.00 | 0.33 | 98 | 1013.9 |
| 20260505192740 | 44 | 99 | 0.0 | 0.0 | 0.00 | 0.00 | 0.33 | 98 | 1013.8 |
| 20260505192240 | 44 | 98 | 0.0 | 0.0 | 0.00 | 0.00 | 0.33 | 98 | 1013.8 |
| 20260505191740 | 44 | 96 | 0.0 | 0.0 | 0.00 | 0.00 | 0.33 | 98 | 1013.8 |
| 20260505191240 | 44 | 140 | 0.0 | 0.0 | 0.00 | 0.00 | 0.33 | 98 | 1013.8 |
| 20260505190740 | 44 | 140 | 0.0 | 0.0 | 0.00 | 0.00 | 0.33 | 97 | 1013.8 |
| 20260505190242 | 44 | 140 | 0.0 | 0.0 | 0.00 | 0.00 | 0.33 | 97 | 1013.8 |
| 20260505185739 | 44 | 140 | 0.0 | 0.0 | 0.00 | 0.00 | 0.33 | 97 | 1013.9 |
| 20260505185242 | 44 | 140 | 0.0 | 0.0 | 0.00 | 0.00 | 0.33 | 97 | 1013.9 |
| 20260505184738 | 44 | 141 | 0.0 | 0.0 | 0.00 | 0.00 | 0.33 | 98 | 1013.9 |
| 20260505184233 | 44 | 138 | 0.0 | 0.0 | 0.00 | 0.00 | 0.33 | 97 | 1013.8 |
| 20260505183730 | 44 | 101 | 0.0 | 0.0 | 0.00 | 0.00 | 0.33 | 97 | 1013.8 |
| 20260505183248 | 44 | 99 | 0.0 | 0.0 | 0.00 | 0.00 | 0.33 | 97 | 1013.8 |
| 20260505182744 | 44 | 96 | 0.0 | 0.0 | 0.00 | 0.00 | 0.32 | 97 | 1013.8 |
| 20260505182243 | 44 | 111 | 0.0 | 0.0 | 0.00 | 0.00 | 0.32 | 97 | 1013.8 |
| 20260505181740 | 44 | 120 | 0.0 | 0.0 | 0.00 | 0.00 | 0.32 | 97 | 1013.8 |
| 20260505181234 | 44 | 103 | 0.0 | 0.0 | 0.00 | 0.00 | 0.32 | 97 | 1013.5 |
| 20260505180734 | 44 | 99 | 0.0 | 0.0 | 0.00 | 0.00 | 0.32 | 97 | 1013.5 |
| 20260505180249 | 44 | 101 | 0.0 | 0.0 | 0.00 | 0.00 | 0.32 | 97 | 1013.5 |
| 20260505175745 | 44 | 98 | 0.0 | 0.0 | 0.00 | 0.00 | 0.32 | 97 | 1013.5 |
| 20260505175241 | 44 | 110 | 0.0 | 0.0 | 0.00 | 0.00 | 0.31 | 97 | 1013.5 |
| 20260505174737 | 44 | 115 | 0.0 | 0.0 | 0.00 | 0.00 | 0.31 | 97 | 1013.5 |
| 20260505174234 | 44 | 101 | 0.0 | 0.0 | 0.00 | 0.00 | 0.31 | 97 | 1013.5 |
| 20260505173739 | 44 | 111 | 0.0 | 0.0 | 0.00 | 0.00 | 0.31 | 97 | 1013.5 |
| 20260505173239 | 44 | 100 | 0.0 | 0.0 | 0.00 | 0.00 | 0.31 | 97 | 1013.5 |
| 20260505172740 | 44 | 108 | 0.0 | 0.0 | 0.00 | 0.00 | 0.31 | 97 | 1013.4 |
| 20260505172242 | 44 | 114 | 0.0 | 0.0 | 0.00 | 0.00 | 0.31 | 97 | 1013.4 |
| 20260505171738 | 44 | 91 | 0.0 | 0.0 | 0.00 | 0.00 | 0.31 | 97 | 1013.4 |
| 20260505171234 | 44 | 98 | 0.0 | 0.0 | 0.00 | 0.00 | 0.31 | 97 | 1013.5 |
| 20260505170749 | 44 | 98 | 0.0 | 0.0 | 0.00 | 0.00 | 0.31 | 97 | 1013.5 |
| 20260505170244 | 44 | 101 | 0.0 | 0.0 | 0.00 | 0.00 | 0.31 | 97 | 1013.5 |
| 20260505165740 | 44 | 98 | 0.0 | 0.0 | 0.00 | 0.00 | 0.31 | 97 | 1013.6 |
| 20260505165243 | 44 | 96 | 0.0 | 0.0 | 0.00 | 0.00 | 0.31 | 97 | 1013.6 |
| 20260505164738 | 44 | 115 | 0.0 | 0.0 | 0.00 | 0.00 | 0.31 | 97 | 1013.6 |
| 20260505164234 | 44 | 100 | 0.0 | 0.0 | 0.00 | 0.00 | 0.31 | 97 | 1013.6 |
| 20260505163731 | 44 | 99 | 0.0 | 0.0 | 0.00 | 0.00 | 0.31 | 97 | 1013.6 |
| 20260505163250 | 44 | 101 | 0.0 | 0.0 | 0.00 | 0.00 | 0.31 | 97 | 1013.6 |
| 20260505162746 | 44 | 115 | 0.0 | 0.0 | 0.00 | 0.00 | 0.31 | 97 | 1013.6 |
| 20260505162247 | 44 | 110 | 0.0 | 0.0 | 0.00 | 0.00 | 0.31 | 97 | 1013.6 |
| 20260505161744 | 44 | 105 | 0.0 | 0.0 | 0.00 | 0.00 | 0.31 | 97 | 1013.6 |
| 20260505161240 | 44 | 98 | 0.0 | 0.0 | 0.00 | 0.00 | 0.31 | 97 | 1013.6 |
| 20260505160737 | 44 | 96 | 0.0 | 0.0 | 0.00 | 0.00 | 0.31 | 97 | 1013.6 |
| 20260505160238 | 44 | 122 | 0.0 | 0.0 | 0.00 | 0.00 | 0.31 | 97 | 1013.6 |
| 20260505153239 | 44 | 97 | 0.0 | 0.0 | 0.00 | 0.00 | 0.31 | 96 | 1013.8 |
| 20260505152735 | 44 | 108 | 0.0 | 0.0 | 0.00 | 0.00 | 0.31 | 96 | 1013.7 |
| 20260505152250 | 44 | 98 | 0.0 | 0.0 | 0.00 | 0.00 | 0.31 | 96 | 1013.7 |
| 20260505151747 | 44 | 101 | 0.0 | 0.0 | 0.00 | 0.00 | 0.31 | 96 | 1013.7 |
| 20260505151231 | 44 | 101 | 0.0 | 0.0 | 0.00 | 0.00 | 0.31 | 96 | 1013.8 |
| 20260505150749 | 44 | 96 | 0.0 | 0.0 | 0.00 | 0.00 | 0.31 | 96 | 1013.8 |
| 20260505150244 | 44 | 96 | 0.0 | 0.0 | 0.00 | 0.00 | 0.31 | 96 | 1013.8 |
| 20260505140238 | 43 | 94 | 0.0 | 0.0 | 0.00 | 0.00 | 0.28 | 97 | 1013.9 |
| 20260505130239 | 43 | 86 | 0.0 | 0.0 | 0.00 | 0.00 | 0.28 | 96 | 1014.0 |
| 20260505124745 | 43 | 102 | 0.0 | 0.0 | 0.00 | 0.00 | 0.28 | 96 | 1014.1 |
| 20260505124244 | 43 | 88 | 0.0 | 0.0 | 0.00 | 0.00 | 0.28 | 96 | 1014.2 |
| 20260505123740 | 43 | 82 | 0.0 | 0.0 | 0.00 | 0.00 | 0.28 | 96 | 1014.2 |
| 20260505123236 | 43 | 91 | 0.0 | 0.0 | 0.00 | 0.00 | 0.28 | 96 | 1014.2 |
| 20260505122751 | 43 | 98 | 0.0 | 0.0 | 0.00 | 0.00 | 0.28 | 96 | 1014.2 |
| 20260505122245 | 43 | 91 | 0.0 | 0.0 | 0.00 | 0.00 | 0.28 | 96 | 1014.2 |
| 20260505121744 | 43 | 101 | 0.0 | 0.0 | 0.00 | 0.00 | 0.28 | 96 | 1014.2 |
| 20260505121241 | 43 | 67 | 0.0 | 0.0 | 0.00 | 0.00 | 0.28 | 95 | 1014.2 |
| 20260505120740 | 43 | 119 | 0.0 | 0.0 | 0.00 | 0.00 | 0.27 | 95 | 1014.2 |
| 20260505120240 | 43 | 97 | 0.0 | 0.0 | 0.00 | 0.00 | 0.27 | 95 | 1014.2 |
| 20260505115739 | 43 | 94 | 0.0 | 0.0 | 0.00 | 0.00 | 0.27 | 95 | 1014.1 |
| 20260505115242 | 43 | 122 | 0.0 | 0.0 | 0.00 | 0.00 | 0.26 | 95 | 1014.1 |
| 20260505114738 | 43 | 87 | 0.0 | 0.0 | 0.00 | 0.00 | 0.26 | 95 | 1014.1 |
| 20260505114234 | 43 | 96 | 0.0 | 0.0 | 0.00 | 0.00 | 0.26 | 95 | 1014.2 |
| 20260505113730 | 43 | 93 | 0.0 | 0.0 | 0.00 | 0.00 | 0.26 | 95 | 1014.2 |
| 20260505113234 | 43 | 91 | 0.0 | 0.0 | 0.00 | 0.00 | 0.26 | 95 | 1014.2 |
| 20260505112750 | 43 | 88 | 0.0 | 0.0 | 0.00 | 0.00 | 0.26 | 95 | 1014.2 |
| 20260505112245 | 42 | 146 | 0.0 | 0.0 | 0.00 | 0.00 | 0.26 | 95 | 1014.2 |
| 20260505111741 | 42 | 109 | 0.0 | 0.0 | 0.00 | 0.00 | 0.26 | 95 | 1014.2 |
| 20260505111237 | 42 | 97 | 0.0 | 0.0 | 0.00 | 0.00 | 0.26 | 95 | 1014.3 |
| 20260505110732 | 42 | 102 | 0.0 | 0.0 | 0.00 | 0.00 | 0.26 | 95 | 1014.3 |
| 20260505110233 | 42 | 110 | 0.0 | 0.0 | 0.00 | 0.00 | 0.26 | 95 | 1014.3 |
| 20260505101736 | 43 | 90 | 0.0 | 0.0 | 0.00 | 0.00 | 0.24 | 93 | 1014.5 |
| 20260505101252 | 43 | 103 | 0.0 | 0.0 | 0.00 | 0.00 | 0.24 | 93 | 1014.2 |
| 20260505100747 | 43 | 95 | 0.0 | 0.0 | 0.00 | 0.00 | 0.24 | 92 | 1014.2 |
| 20260505100246 | 43 | 83 | 0.0 | 0.0 | 0.00 | 0.00 | 0.24 | 92 | 1014.2 |
| 20260505095746 | 43 | 160 | 0.0 | 0.0 | 0.00 | 0.00 | 0.23 | 92 | 1014.2 |
| 20260505095242 | 43 | 94 | 0.0 | 0.0 | 0.00 | 0.00 | 0.23 | 92 | 1014.2 |
| 20260505094740 | 43 | 98 | 0.0 | 0.0 | 0.00 | 0.00 | 0.23 | 92 | 1014.2 |
| 20260505094239 | 43 | 100 | 0.0 | 0.0 | 0.00 | 0.00 | 0.22 | 90 | 1014.3 |
| 20260505093735 | 43 | 25 | 0.0 | 0.0 | 0.00 | 0.00 | 0.21 | 90 | 1014.3 |
| 20260505093231 | 43 | 70 | 0.0 | 0.0 | 0.00 | 0.00 | 0.21 | 90 | 1014.3 |
| 20260505092730 | 43 | 87 | 0.0 | 0.0 | 0.00 | 0.00 | 0.21 | 89 | 1014.2 |
| 20260505092230 | 43 | 89 | 0.0 | 0.0 | 0.00 | 0.00 | 0.20 | 91 | 1014.2 |
| 20260505091751 | 43 | 54 | 0.0 | 0.0 | 0.00 | 0.00 | 0.20 | 91 | 1014.2 |
| 20260505091245 | 43 | 102 | 0.0 | 0.0 | 0.00 | 0.00 | 0.20 | 89 | 1014.1 |
| 20260505090741 | 44 | 88 | 0.0 | 0.0 | 0.00 | 0.00 | 0.19 | 88 | 1014.1 |
| 20260505090241 | 44 | 76 | 0.0 | 0.0 | 0.00 | 0.00 | 0.19 | 87 | 1014.1 |
| 20260505085740 | 44 | 77 | 0.0 | 0.0 | 0.00 | 0.00 | 0.18 | 87 | 1014.4 |
| 20260505085236 | 43 | 82 | 0.0 | 0.0 | 0.00 | 0.00 | 0.18 | 88 | 1014.4 |
| 20260505084735 | 43 | 105 | 0.0 | 0.0 | 0.00 | 0.00 | 0.17 | 90 | 1014.4 |
| 20260505084251 | 43 | 84 | 0.0 | 0.0 | 0.00 | 0.00 | 0.16 | 92 | 1014.5 |
| 20260505083747 | 43 | 92 | 0.0 | 0.0 | 0.00 | 0.00 | 0.15 | 94 | 1014.5 |
| 20260505083243 | 43 | 56 | 0.0 | 0.0 | 0.00 | 0.00 | 0.13 | 94 | 1014.5 |
| 20260505082739 | 43 | 102 | 0.0 | 0.0 | 0.00 | 0.00 | 0.13 | 94 | 1014.6 |
| 20260505082239 | 43 | 90 | 0.0 | 0.0 | 0.00 | 0.00 | 0.12 | 93 | 1014.6 |
| 20260505081739 | 43 | 95 | 0.0 | 0.0 | 0.00 | 0.00 | 0.11 | 93 | 1014.6 |
| 20260505080733 | 43 | 82 | 0.0 | 0.0 | 0.00 | 0.00 | 0.09 | 91 | 1014.6 |
| 20260505080250 | 43 | 82 | 0.0 | 0.0 | 0.00 | 0.00 | 0.09 | 89 | 1014.6 |
| 20260505075748 | 43 | 98 | 0.0 | 0.0 | 0.00 | 0.00 | 0.08 | 89 | 1014.5 |
| 20260505075245 | 43 | 98 | 0.0 | 0.0 | 0.00 | 0.00 | 0.07 | 90 | 1014.5 |
| 20260505074748 | 43 | 75 | 0.0 | 0.0 | 0.00 | 0.00 | 0.07 | 90 | 1014.5 |
| 20260505074247 | 43 | 63 | 0.0 | 0.0 | 0.00 | 0.00 | 0.06 | 89 | 1014.5 |
| 20260505073744 | 43 | 71 | 0.0 | 0.0 | 0.00 | 0.00 | 0.06 | 89 | 1014.5 |
| 20260505073239 | 43 | 84 | 0.0 | 0.0 | 0.00 | 0.00 | 0.06 | 87 | 1014.5 |
| 20260505072735 | 43 | 94 | 0.0 | 0.0 | 0.00 | 0.00 | 0.05 | 85 | 1014.5 |
| 20260505072232 | 43 | 84 | 0.0 | 0.0 | 0.00 | 0.00 | 0.04 | 84 | 1014.5 |
| 20260505071732 | 43 | 91 | 0.0 | 0.0 | 0.00 | 0.00 | 0.04 | 86 | 1014.5 |
| 20260505071251 | 43 | 110 | 0.0 | 0.0 | 0.00 | 0.00 | 0.04 | 86 | 1014.4 |
| 20260505070747 | 43 | 87 | 0.0 | 0.0 | 0.00 | 0.00 | 0.03 | 85 | 1014.4 |
| 20260505070243 | 43 | 84 | 0.0 | 0.0 | 0.00 | 0.00 | 0.03 | 85 | 1014.4 |
| 20260505065742 | 44 | 96 | 0.0 | 0.0 | 0.00 | 0.00 | 0.02 | 83 | 1014.5 |
| 20260505065238 | 44 | 96 | 0.0 | 0.0 | 0.00 | 0.00 | 0.02 | 83 | 1014.5 |
| 20260505064737 | 44 | 70 | 0.0 | 0.0 | 0.00 | 0.00 | 0.02 | 83 | 1014.5 |
| 20260505064234 | 44 | 57 | 0.0 | 0.0 | 0.00 | 0.00 | 0.02 | 84 | 1014.5 |
| 20260505063738 | 44 | 58 | 0.0 | 0.0 | 0.00 | 0.00 | 0.02 | 83 | 1014.5 |
| 20260505063237 | 44 | 79 | 0.0 | 0.0 | 0.00 | 0.00 | 0.01 | 81 | 1014.5 |
| 20260505062733 | 44 | 93 | 0.0 | 0.0 | 0.00 | 0.00 | 0.01 | 81 | 1014.3 |
| 20260505062247 | 45 | 91 | 0.0 | 0.0 | 0.00 | 0.00 | 0.01 | 79 | 1014.3 |
| 20260505061746 | 45 | 102 | 0.0 | 0.0 | 0.00 | 0.00 | 0.00 | 78 | 1014.3 |
| 20260505061243 | 45 | 85 | 0.0 | 0.0 | 0.00 | 0.00 | 0.00 | 78 | 1014.1 |
| 20260505060743 | 46 | 94 | 0.0 | 0.0 | 0.00 | 0.00 | 0.00 | 76 | 1014.1 |
| 20260505060242 | 46 | 98 | 0.0 | 0.0 | 0.00 | 0.00 | 0.00 | 74 | 1014.1 |
| 20260505055738 | 46 | 91 | 0.0 | 0.0 | 0.00 | 0.00 | 0.00 | 74 | 1014.1 |
| 20260505055234 | 45 | 57 | 0.0 | 0.0 | 0.00 | 0.00 | 0.00 | 76 | 1014.1 |
| 20260505054730 | 44 | 54 | 0.0 | 0.0 | 0.00 | 0.00 | 0.00 | 77 | 1014.1 |
| 20260505054249 | 44 | 43 | 0.0 | 0.0 | 0.00 | 0.00 | 0.00 | 78 | 1014.2 |
| 20260505053745 | 44 | 55 | 0.0 | 0.0 | 0.00 | 0.00 | 0.00 | 77 | 1014.2 |
| 20260505053240 | 45 | 94 | 0.0 | 0.0 | 0.00 | 0.00 | 0.00 | 75 | 1014.2 |
| 20260505052736 | 45 | 122 | 0.0 | 0.0 | 0.00 | 0.00 | 0.00 | 73 | 1013.9 |
| 20260505052236 | 46 | 97 | 0.0 | 0.0 | 0.00 | 0.00 | 0.00 | 73 | 1013.9 |
| 20260505051735 | 46 | 108 | 0.0 | 0.0 | 0.00 | 0.00 | 0.00 | 71 | 1013.9 |
| 20260505051251 | 46 | 84 | 0.0 | 0.0 | 0.00 | 0.00 | 0.00 | 70 | 1013.9 |
| 20260505050746 | 46 | 98 | 0.0 | 0.0 | 0.00 | 0.00 | 0.00 | 69 | 1013.9 |
| 20260505050243 | 46 | 79 | 0.0 | 0.0 | 0.00 | 0.00 | 0.00 | 67 | 1013.9 |
| 20260505041746 | 48 | 79 | 0.0 | 0.0 | 0.00 | 0.00 | 0.00 | 62 | 1013.7 |
| 20260505041230 | 48 | 73 | 0.0 | 0.0 | 0.00 | 0.00 | 0.00 | 62 | 1013.8 |
| 20260505040748 | 48 | 99 | 0.0 | 0.0 | 0.00 | 0.00 | 0.00 | 61 | 1013.8 |
| 20260505040246 | 48 | 81 | 0.0 | 0.0 | 0.00 | 0.00 | 0.00 | 61 | 1013.8 |
| 20260505035742 | 48 | 91 | 0.0 | 0.0 | 0.00 | 0.00 | 0.00 | 61 | 1013.8 |
| 20260505035238 | 48 | 86 | 0.0 | 0.0 | 0.00 | 0.00 | 0.00 | 61 | 1013.8 |
| 20260505034735 | 49 | 86 | 0.0 | 0.0 | 0.00 | 0.00 | 0.00 | 61 | 1013.8 |
| 20260505034234 | 49 | 86 | 0.0 | 0.0 | 0.00 | 0.00 | 0.00 | 60 | 1014.2 |
| 20260505033731 | 48 | 89 | 0.0 | 0.0 | 0.00 | 0.00 | 0.00 | 61 | 1014.2 |
| 20260505033250 | 48 | 90 | 0.0 | 0.0 | 0.00 | 0.00 | 0.00 | 61 | 1014.2 |
| 20260505032745 | 48 | 91 | 0.0 | 0.0 | 0.00 | 0.00 | 0.00 | 61 | 1014.2 |
| 20260505032241 | 48 | 87 | 0.0 | 0.0 | 0.00 | 0.00 | 0.00 | 62 | 1014.2 |
| 20260505031738 | 48 | 97 | 0.0 | 0.0 | 0.00 | 0.00 | 0.00 | 62 | 1014.2 |
| 20260505031239 | 48 | 85 | 0.0 | 0.0 | 0.00 | 0.00 | 0.00 | 60 | 1014.2 |
| 20260505030738 | 48 | 89 | 0.0 | 0.0 | 0.00 | 0.00 | 0.00 | 60 | 1014.2 |
| 20260505030234 | 48 | 83 | 0.0 | 0.0 | 0.00 | 0.00 | 0.00 | 61 | 1014.2 |
| 20260505025734 | 48 | 95 | 0.0 | 0.0 | 0.00 | 0.00 | 0.00 | 60 | 1014.2 |
| 20260505025250 | 48 | 94 | 0.0 | 0.0 | 0.00 | 0.00 | 0.00 | 59 | 1014.2 |
| 20260505024746 | 48 | 90 | 0.0 | 0.0 | 0.00 | 0.00 | 0.00 | 59 | 1014.2 |
| 20260505024245 | 48 | 84 | 0.0 | 0.0 | 0.00 | 0.00 | 0.00 | 60 | 1014.5 |
| 20260505023746 | 48 | 92 | 0.0 | 0.0 | 0.00 | 0.00 | 0.00 | 60 | 1014.5 |
| 20260505023245 | 48 | 86 | 0.0 | 0.0 | 0.00 | 0.00 | 0.00 | 60 | 1014.5 |
| 20260505022741 | 48 | 84 | 0.0 | 0.0 | 0.00 | 0.00 | 0.00 | 60 | 1014.6 |
| 20260505022237 | 48 | 87 | 0.0 | 0.0 | 0.00 | 0.00 | 0.00 | 60 | 1014.6 |
| 20260505021733 | 48 | 96 | 0.0 | 0.0 | 0.00 | 0.00 | 0.00 | 59 | 1014.6 |
| 20260505021252 | 48 | 90 | 0.0 | 0.0 | 0.00 | 0.00 | 0.00 | 58 | 1014.6 |
| 20260505020749 | 48 | 100 | 0.0 | 0.0 | 0.00 | 0.00 | 0.00 | 57 | 1014.6 |
| 20260505020249 | 49 | 117 | 0.0 | 0.0 | 0.00 | 0.00 | 0.00 | 56 | 1014.6 |
| 20260505015748 | 49 | 111 | 0.0 | 0.0 | 0.00 | 0.00 | 0.00 | 56 | 1014.6 |
| 20260505015244 | 49 | 127 | 0.0 | 0.0 | 0.00 | 0.00 | 0.00 | 55 | 1014.6 |
| 20260505014740 | 49 | 101 | 0.0 | 0.0 | 0.00 | 0.00 | 0.00 | 54 | 1014.6 |